STARLINK-5118 (53991 NORAD) Tracking and Keplerian Element Data

This shows tracking and keplerian element data for the satellite.

Feedback or suggestion? Click here.




ElementValue
Catalog53991
NameSTARLINK-5118
Epoch Orbit130
Epoch Day324.91667824
Epoch Year2022
RAAN223.4935
Inclination53.2162
Eccentricity0.0001547
Argument of Perigee43.375
Mean Anonmoly137.0459
Mean Motion15.73179138
Decay Rate-0.00042298
L11 53991U 22125AD 22324.91667824 -.00042298 00000+0 -29873-3 0 9993
L22 53991 53.2162 223.4935 0001547 43.3750 137.0459 15.73179138 1303



Live tracking and technical data element details for STARLINK-5118 (NORAD 53991). STARLINK-5118 can be tracked NOW for your location showing map with azimuth and elevation plus other details from your city location.







IsCatalogInMostPopularTable: catalog: 53991, numindb: 3
Update: records affected: 1



GetName: 53991 STARLINK-5118

Hit Count: updated at: Mon, 28 Nov 2022 22:18:12 GMT